Weather History for Mobile, AL

Change the Weather History Date:

Friday, February 1, 2013

  Actual Average Record
Temperature  
Mean Temperature 51 °F 51 °F  
Max Temperature 62 °F 62 °F 80 °F (1989)
Min Temperature 39 °F 41 °F 17 °F (1951)
Degree Days  
Heating Degree Days 14 14  
Month to date heating degree days 14 14  
Since 1 July heating degree days 925 1135  
Cooling Degree Days 0 0  
Month to date cooling degree days 0 0  
Year to date cooling degree days 26 7  
Moisture  
Dew Point 31 °F    
Average Humidity 56    
Maximum Humidity 79    
Minimum Humidity 32    
Precipitation  
Precipitation 0.00 in 0.19 in 4.64 in (1983)
Month to date precipitation 0.00 0.19  
Year to date precipitation 2.87 5.84  
Snow  
Snow 0.00 in 0.00 in - ()
Month to date snowfall 0.0 0.0  
Since 1 July snowfall 0.0 T  
Snow Depth 0.00 in    
Sea Level Pressure  
Sea Level Pressure 30.36 in    
Wind  
Wind Speed 7 mph (North)    
Max Wind Speed 15 mph    
Max Gust Speed 18 mph    
Visibility 10 miles    
Events      
T = Trace of Precipitation, MM = Missing Value Source: NWS Daily Summary

Daily Weather History Graph

Daily Weather History Graph

Search for Another Location

Airport:

Trip Planner

Search our weather history database for the weather conditions in past years. The results will help you decide how hot, cold, wet, or windy it might be!

Date:

Astronomy

Feb. 01, 2013 Rise Set
Actual Time 6:44 AM CST 5:29 PM CST
Civil Twilight 6:18 AM CST 5:54 PM CST
Nautical Twilight 5:50 AM CST 6:23 PM CST
Astronomical Twilight 5:21 AM CST 6:51 PM CST
Moon 11:06 PM CST (2/1) 9:44 AM CST (2/1)
Length of Visible Light 11h 35m
Length of Day
10h 45m
Waning Gibbous, 70% of the Moon is Illuminated
Feb 1
Waning Gibbous
Feb 3
Last Quarter
Feb 10
New
Feb 17
First Quarter
Feb 25
Full

Hourly Weather History & Observations

Time (CST) Temp. Windchill Dew Point Humidity Pressure Visibility Wind Dir Wind Speed Gust Speed Precip Events Conditions
12:56 AM 42.1 °F 39.2 °F 33.1 °F 70% 30.32 in 10.0 mi West 4.6 mph - N/A   Clear
1:56 AM 39.9 °F 35.8 °F 33.1 °F 77% 30.33 in 10.0 mi West 5.8 mph - N/A   Clear
2:56 AM 42.1 °F 38.4 °F 34.0 °F 73% 30.33 in 10.0 mi West 5.8 mph - N/A   Clear
3:56 AM 39.9 °F 37.8 °F 34.0 °F 79% 30.30 in 10.0 mi West 3.5 mph - N/A   Clear
4:56 AM 39.9 °F 36.7 °F 34.0 °F 79% 30.33 in 10.0 mi West 4.6 mph - N/A   Clear
5:56 AM 41.0 °F 38.0 °F 33.1 °F 73% 30.35 in 10.0 mi WNW 4.6 mph - N/A   Partly Cloudy
6:56 AM 42.1 °F 39.2 °F 33.1 °F 70% 30.37 in 10.0 mi WNW 4.6 mph - N/A   Mostly Cloudy
7:56 AM 44.1 °F 42.5 °F 34.0 °F 68% 30.39 in 10.0 mi NW 3.5 mph - N/A   Mostly Cloudy
8:56 AM 46.9 °F - 34.0 °F 61% 30.41 in 10.0 mi North 5.8 mph - N/A   Overcast
9:56 AM 48.9 °F - 34.0 °F 56% 30.41 in 10.0 mi NNE 11.5 mph - N/A   Overcast
10:56 AM 53.1 °F - 34.0 °F 48% 30.41 in 10.0 mi North 13.8 mph - N/A   Mostly Cloudy
11:56 AM 55.9 °F - 33.1 °F 42% 30.38 in 10.0 mi NNE 11.5 mph - N/A   Mostly Cloudy
12:56 PM 57.9 °F - 33.1 °F 39% 30.35 in 10.0 mi North 10.4 mph - N/A   Mostly Cloudy
1:56 PM 59.0 °F - 33.1 °F 38% 30.35 in 10.0 mi North 8.1 mph - N/A   Scattered Clouds
2:56 PM 61.0 °F - 30.9 °F 32% 30.34 in 10.0 mi North 8.1 mph - N/A   Partly Cloudy
3:56 PM 60.1 °F - 30.0 °F 32% 30.34 in 10.0 mi NNE 9.2 mph - N/A   Partly Cloudy
4:56 PM 57.0 °F - 28.9 °F 34% 30.33 in 10.0 mi NNE 8.1 mph - N/A   Partly Cloudy
5:56 PM 52.0 °F - 30.9 °F 45% 30.34 in 10.0 mi NNE 4.6 mph - N/A   Scattered Clouds
6:56 PM 48.0 °F - 30.0 °F 50% 30.35 in 10.0 mi NNE 5.8 mph - N/A   Partly Cloudy
7:56 PM 45.0 °F 42.6 °F 30.0 °F 56% 30.35 in 10.0 mi North 4.6 mph - N/A   Clear
8:56 PM 43.0 °F 39.5 °F 28.0 °F 56% 30.36 in 10.0 mi NE 5.8 mph - N/A   Clear
9:56 PM 42.1 °F 40.2 °F 26.1 °F 53% 30.37 in 10.0 mi NE 3.5 mph - N/A   Clear
10:56 PM 41.0 °F 38.0 °F 26.1 °F 55% 30.36 in 10.0 mi ENE 4.6 mph - N/A   Clear
11:56 PM 39.9 °F 37.8 °F 24.1 °F 53% 30.35 in 10.0 mi ENE 3.5 mph - N/A   Clear